| time (UTC) | temp C | wind direction | speed KPH | gust KPH | rain 1hr cm | rain 24hr cm | rain mn cm | humidity % | barometer mb |
| 20260510153704 | 13 | 300 | 1.6 | 4.8 | 0.00 | 0.00 | 0.00 | 83 | 1018.1 |
| 20260510153204 | 13 | 300 | 1.6 | 4.8 | 0.00 | 0.00 | 0.00 | 84 | 1017.8 |
| 20260510150704 | 12 | 300 | 1.6 | 4.8 | 0.00 | 0.00 | 0.00 | 85 | 1017.4 |
| 20260510150203 | 12 | 238 | 0.0 | 4.8 | 0.00 | 0.00 | 0.00 | 86 | 1017.5 |
| 20260510143703 | 12 | 182 | 1.6 | 4.8 | 0.00 | 0.00 | 0.00 | 87 | 1017.9 |
| 20260510143204 | 12 | 218 | 3.2 | 9.7 | 0.00 | 0.00 | 0.00 | 87 | 1018.0 |
| 20260510140204 | 11 | 138 | 1.6 | 9.7 | 0.00 | 0.00 | 0.00 | 87 | 1016.8 |
| 20260510133704 | 11 | 87 | 3.2 | 4.8 | 0.00 | 0.00 | 0.00 | 88 | 1017.2 |
| 20260510133205 | 11 | 87 | 1.6 | 4.8 | 0.00 | 0.00 | 0.00 | 88 | 1017.3 |
| 20260510130704 | 11 | 109 | 1.6 | 4.8 | 0.00 | 0.00 | 0.00 | 89 | 1017.7 |
| 20260510130204 | 10 | 108 | 0.0 | 0.0 | 0.00 | 0.00 | 0.00 | 89 | 1017.5 |
| 20260510123704 | 11 | 108 | 0.0 | 0.0 | 0.00 | 0.00 | 0.00 | 88 | 1017.5 |
| 20260510123205 | 11 | 108 | 0.0 | 3.2 | 0.00 | 0.00 | 0.00 | 88 | 1017.4 |
| 20260510120203 | 11 | 108 | 0.0 | 3.2 | 0.00 | 0.00 | 0.00 | 87 | 1017.2 |
| 20260510110704 | 11 | 72 | 0.0 | 1.6 | 0.00 | 0.00 | 0.00 | 86 | 1017.0 |
| 20260510110204 | 11 | 72 | 0.0 | 3.2 | 0.00 | 0.00 | 0.00 | 85 | 1017.0 |
| 20260510103704 | 12 | 72 | 0.0 | 1.6 | 0.00 | 0.00 | 0.00 | 84 | 1016.8 |
| 20260510103204 | 12 | 72 | 0.0 | 3.2 | 0.00 | 0.00 | 0.00 | 84 | 1016.8 |
| 20260510100703 | 12 | 72 | 0.0 | 0.0 | 0.00 | 0.00 | 0.00 | 83 | 1016.6 |
| 20260510093704 | 12 | 72 | 0.0 | 0.0 | 0.00 | 0.00 | 0.00 | 85 | 1016.2 |
| 20260510093205 | 12 | 72 | 0.0 | 0.0 | 0.00 | 0.00 | 0.00 | 85 | 1016.1 |
| 20260510090704 | 12 | 72 | 0.0 | 0.0 | 0.00 | 0.00 | 0.00 | 83 | 1015.9 |
| 20260510083704 | 12 | 72 | 0.0 | 0.0 | 0.00 | 0.00 | 0.00 | 84 | 1015.8 |
| 20260510083203 | 12 | 72 | 0.0 | 3.2 | 0.00 | 0.00 | 0.00 | 83 | 1015.7 |
| 20260510080703 | 13 | 72 | 1.6 | 4.8 | 0.00 | 0.00 | 0.00 | 83 | 1015.7 |
| 20260510080204 | 13 | 73 | 0.0 | 3.2 | 0.00 | 0.00 | 0.00 | 83 | 1015.8 |
| 20260510073705 | 13 | 73 | 0.0 | 0.0 | 0.00 | 0.00 | 0.00 | 82 | 1015.9 |
| 20260510073205 | 13 | 73 | 0.0 | 0.0 | 0.00 | 0.00 | 0.00 | 82 | 1015.9 |
| 20260510070204 | 13 | 73 | 0.0 | 0.0 | 0.00 | 0.00 | 0.00 | 80 | 1015.9 |
| 20260510063204 | 14 | 24 | 0.0 | 1.6 | 0.00 | 0.00 | 0.00 | 79 | 1016.0 |
| 20260510060704 | 16 | 24 | 0.0 | 1.6 | 0.00 | 0.00 | 0.00 | 75 | 1016.0 |
| 20260510060204 | 16 | 24 | 0.0 | 3.2 | 0.00 | 0.00 | 0.00 | 75 | 1016.0 |
| 20260510053704 | 16 | 24 | 0.0 | 1.6 | 0.00 | 0.00 | 0.00 | 74 | 1015.9 |
| 20260510053204 | 16 | 24 | 0.0 | 3.2 | 0.00 | 0.00 | 0.00 | 73 | 1015.8 |
| 20260510043704 | 17 | 10 | 0.0 | 0.0 | 0.00 | 0.00 | 0.00 | 72 | 1015.8 |
| 20260510043204 | 17 | 11 | 0.0 | 1.6 | 0.00 | 0.00 | 0.00 | 71 | 1015.8 |
| 20260510040704 | 17 | 11 | 0.0 | 1.6 | 0.00 | 0.00 | 0.00 | 69 | 1015.6 |
| 20260510040203 | 17 | 11 | 0.0 | 3.2 | 0.00 | 0.00 | 0.00 | 68 | 1015.6 |
| 20260510033705 | 18 | 11 | 0.0 | 0.0 | 0.00 | 0.00 | 0.00 | 65 | 1015.5 |
| 20260510030204 | 19 | 40 | 0.0 | 4.8 | 0.00 | 0.00 | 0.00 | 58 | 1015.8 |
| 20260510023704 | 20 | 333 | 1.6 | 4.8 | 0.00 | 0.00 | 0.00 | 54 | 1016.0 |
| 20260510023205 | 20 | 283 | 1.6 | 4.8 | 0.00 | 0.00 | 0.00 | 54 | 1016.0 |
| 20260510020705 | 21 | 0 | 1.6 | 4.8 | 0.00 | 0.00 | 0.00 | 53 | 1016.2 |
| 20260510020204 | 21 | 15 | 3.2 | 4.8 | 0.00 | 0.00 | 0.00 | 52 | 1016.2 |
| 20260510013704 | 21 | 8 | 3.2 | 8.0 | 0.00 | 0.00 | 0.00 | 53 | 1016.7 |
| 20260510013205 | 21 | 20 | 0.0 | 8.0 | 0.00 | 0.00 | 0.00 | 52 | 1016.7 |
| 20260510010704 | 21 | 344 | 1.6 | 3.2 | 0.00 | 0.00 | 0.00 | 52 | 1016.8 |
| 20260510010204 | 21 | 340 | 3.2 | 9.7 | 0.00 | 0.00 | 0.00 | 52 | 1016.8 |
| 20260510003704 | 21 | 342 | 3.2 | 9.7 | 0.00 | 0.00 | 0.00 | 52 | 1017.1 |
| 20260510003203 | 21 | 322 | 1.6 | 12.9 | 0.00 | 0.00 | 0.00 | 51 | 1017.2 |
| 20260510000703 | 21 | 338 | 4.8 | 14.5 | 0.00 | 0.00 | 0.00 | 51 | 1017.5 |
| 20260509233703 | 21 | 9 | 4.8 | 12.9 | 0.00 | 0.00 | 0.00 | 51 | 1017.7 |
| 20260509233205 | 21 | 0 | 3.2 | 14.5 | 0.00 | 0.00 | 0.00 | 50 | 1017.7 |
| 20260509230704 | 22 | 267 | 3.2 | 8.0 | 0.00 | 0.00 | 0.00 | 49 | 1018.0 |
| 20260509230204 | 21 | 201 | 1.6 | 16.1 | 0.00 | 0.00 | 0.00 | 49 | 1018.3 |
| 20260509223704 | 21 | 287 | 3.2 | 19.3 | 0.00 | 0.00 | 0.00 | 52 | 1018.5 |
| 20260509223204 | 20 | 293 | 4.8 | 16.1 | 0.00 | 0.00 | 0.00 | 53 | 1018.6 |
| 20260509220704 | 21 | 320 | 4.8 | 14.5 | 0.00 | 0.00 | 0.00 | 52 | 1018.6 |
| 20260509220204 | 21 | 274 | 3.2 | 12.9 | 0.00 | 0.00 | 0.00 | 52 | 1018.7 |
| 20260509213704 | 21 | 277 | 4.8 | 14.5 | 0.00 | 0.00 | 0.00 | 52 | 1018.8 |
| 20260509213205 | 21 | 292 | 4.8 | 12.9 | 0.00 | 0.00 | 0.00 | 51 | 1018.8 |
| 20260509210203 | 21 | 354 | 4.8 | 11.3 | 0.00 | 0.00 | 0.00 | 53 | 1019.0 |
| 20260509203703 | 21 | 304 | 4.8 | 12.9 | 0.00 | 0.00 | 0.00 | 54 | 1019.2 |
| 20260509203203 | 20 | 288 | 3.2 | 12.9 | 0.00 | 0.00 | 0.00 | 54 | 1019.2 |
| 20260509200705 | 20 | 336 | 3.2 | 8.0 | 0.00 | 0.00 | 0.00 | 56 | 1019.7 |
| 20260509200204 | 19 | 292 | 8.0 | 16.1 | 0.00 | 0.00 | 0.00 | 55 | 1019.7 |
| 20260509193704 | 20 | 333 | 3.2 | 12.9 | 0.00 | 0.00 | 0.00 | 56 | 1020.1 |
| 20260509193204 | 19 | 286 | 4.8 | 14.5 | 0.00 | 0.00 | 0.00 | 58 | 1020.2 |
| 20260509190704 | 18 | 29 | 4.8 | 11.3 | 0.00 | 0.00 | 0.00 | 59 | 1020.4 |
| 20260509183704 | 18 | 303 | 3.2 | 4.8 | 0.00 | 0.00 | 0.00 | 61 | 1020.6 |
| 20260509183204 | 18 | 19 | 3.2 | 9.7 | 0.00 | 0.00 | 0.00 | 62 | 1020.6 |
| 20260509180704 | 17 | 4 | 3.2 | 11.3 | 0.00 | 0.00 | 0.00 | 64 | 1020.9 |
| 20260509180205 | 17 | 25 | 1.6 | 8.0 | 0.00 | 0.00 | 0.00 | 64 | 1020.8 |
| 20260509173704 | 16 | 322 | 4.8 | 9.7 | 0.00 | 0.00 | 0.00 | 68 | 1021.0 |
| 20260509173203 | 16 | 293 | 1.6 | 9.7 | 0.00 | 0.00 | 0.00 | 68 | 1021.1 |
| 20260509170704 | 15 | 303 | 3.2 | 4.8 | 0.00 | 0.00 | 0.00 | 72 | 1021.2 |
| 20260509170204 | 15 | 308 | 3.2 | 4.8 | 0.00 | 0.00 | 0.00 | 73 | 1021.2 |
| 20260509163704 | 14 | 285 | 3.2 | 11.3 | 0.00 | 0.00 | 0.00 | 76 | 1021.5 |
| 20260509163204 | 14 | 288 | 1.6 | 8.0 | 0.00 | 0.00 | 0.00 | 76 | 1021.5 |
| 20260509160704 | 13 | 295 | 3.2 | 4.8 | 0.00 | 0.00 | 0.00 | 79 | 1021.7 |
| 20260509160204 | 13 | 355 | 1.6 | 4.8 | 0.00 | 0.00 | 0.00 | 80 | 1021.7 |